Elwood, KS

3:43 AM CST on February 27, 2017 (GMT -0600)
Rosecrans Memorial

Weather History for KSTJ - January, 2015

Change the Weather History Date:

Tuesday, January 6, 2015

  Actual Average Record
Temperature  
Mean Temperature 19 °F 26 °F  
Max Temperature 26 °F 36 °F 63 °F (1939)
Min Temperature 11 °F 17 °F -20 °F (1971)
Degree Days  
Heating Degree Days 46 38  
Month to date heating degree days 263 231  
Since 1 July heating degree days 2475 2444  
Moisture  
Dew Point 10 °F    
Average Humidity 70    
Maximum Humidity 84    
Minimum Humidity 56    
Precipitation  
Precipitation T in 0.02 in 0.36 in (2010)
Month to date precipitation T 0.12  
Year to date precipitation T 0.12  
Sea Level Pressure  
Sea Level Pressure 30.54 in    
Wind  
Wind Speed 13 mph (NNW)    
Max Wind Speed 28 mph    
Max Gust Speed 33 mph    
Visibility 9 miles    
Events Snow    
T = Trace of Precipitation, MM = Missing Value Source: NWS Daily Summary

Daily Weather History Graph

Daily Weather History Graph

Search for Another Location

Airport or City:

Trip Planner

Search our weather history database for the weather conditions in past years. The results will help you decide how hot, cold, wet, or windy it might be!

Date:

Astronomy

Jan. 06, 2015 Rise Set
Actual Time 7:41 AM CST 5:10 PM CST
Civil Twilight 7:10 AM CST 5:40 PM CST
Nautical Twilight 6:37 AM CST 6:13 PM CST
Astronomical Twilight 6:04 AM CST 6:46 PM CST
Moon 6:59 PM CST (1/6) 8:18 AM CST (1/6)
Length of Visible Light 10h 29m
Length of Day
9h 29m
Full, 98% of the Moon is Illuminated
Jan 6
Full
Jan 13
Last Quarter
Jan 20
New
Jan 26
First Quarter
Feb 3
Full

Hourly Weather History & Observations

Time (CST) Temp. Windchill Dew Point Humidity Pressure Visibility Wind Dir Wind Speed Gust Speed Precip Events Conditions
12:53 AM 26.1 °F 12.3 °F 17.1 °F 69% 30.29 in 10.0 mi West 19.6 mph 27.6 mph N/A   Clear
1:53 AM 25.0 °F 13.6 °F 17.1 °F 72% 30.35 in 10.0 mi NW 12.7 mph - N/A   Partly Cloudy
2:19 AM 25.0 °F 11.3 °F 17.1 °F 72% 30.34 in 10.0 mi NW 18.4 mph - N/A   Mostly Cloudy
2:46 AM 23.0 °F 8.0 °F 14.0 °F 68% 30.36 in 10.0 mi NNW 20.7 mph 27.6 mph N/A   Scattered Clouds
2:53 AM 23.0 °F 8.3 °F 14.0 °F 68% 30.40 in 10.0 mi NW 19.6 mph 26.5 mph N/A   Mostly Cloudy
3:53 AM 19.9 °F 4.8 °F 12.0 °F 71% 30.45 in 10.0 mi NNW 18.4 mph - N/A   Mostly Cloudy
4:05 AM 19.0 °F 2.0 °F 10.0 °F 68% 30.42 in 10.0 mi NNW 23.0 mph 32.2 mph N/A   Scattered Clouds
4:53 AM 17.1 °F 1.5 °F 9.0 °F 71% 30.50 in 10.0 mi NNW 17.3 mph - N/A   Clear
5:53 AM 15.1 °F -1.6 °F 7.0 °F 70% 30.54 in 10.0 mi North 18.4 mph - N/A   Clear
6:53 AM 12.9 °F -3.4 °F 6.1 °F 74% 30.58 in 10.0 mi North 16.1 mph - N/A   Clear
7:53 AM 10.9 °F -4.1 °F 5.0 °F 77% 30.62 in 10.0 mi North 12.7 mph - N/A   Clear
8:53 AM 12.9 °F -2.2 °F 5.0 °F 71% 30.66 in 10.0 mi North 13.8 mph - N/A   Clear
9:53 AM 14.0 °F 1.2 °F 5.0 °F 67% 30.65 in 10.0 mi North 10.4 mph - N/A   Clear
10:53 AM 17.1 °F 4.3 °F 6.1 °F 62% 30.65 in 10.0 mi North 11.5 mph - N/A   Clear
11:53 AM 17.1 °F 8.7 °F 6.1 °F 62% 30.61 in 10.0 mi Variable 5.8 mph - N/A   Clear
12:53 PM 18.0 °F 5.4 °F 7.0 °F 62% 30.59 in 10.0 mi WNW 11.5 mph - N/A   Clear
1:53 PM 19.9 °F 12.1 °F 8.1 °F 60% 30.55 in 10.0 mi West 5.8 mph - N/A   Clear
2:53 PM 19.9 °F 8.6 °F 7.0 °F 57% 30.54 in 10.0 mi WNW 10.4 mph - N/A   Clear
3:53 PM 19.9 °F 11.1 °F 7.0 °F 57% 30.54 in 10.0 mi WNW 6.9 mph - N/A   Clear
4:53 PM 19.0 °F 11.1 °F 8.1 °F 62% 30.55 in 10.0 mi WNW 5.8 mph - N/A   Clear
5:53 PM 19.0 °F 12.3 °F 8.1 °F 62% 30.53 in 10.0 mi NW 4.6 mph - N/A   Mostly Cloudy
6:53 PM 19.0 °F 9.0 °F 9.0 °F 65% 30.55 in 10.0 mi North 8.1 mph - N/A   Mostly Cloudy
7:53 PM 19.9 °F 8.6 °F 9.0 °F 62% 30.57 in 10.0 mi NNW 10.4 mph - N/A   Overcast
8:53 PM 19.9 °F 7.3 °F 10.0 °F 65% 30.58 in 10.0 mi NNW 12.7 mph - 0.00 in Snow Light Snow
9:10 PM 19.0 °F 4.5 °F 12.0 °F 74% 30.55 in 2.5 mi NNW 16.1 mph - 0.00 in Snow Light Snow
9:18 PM 19.0 °F 4.0 °F 12.9 °F 77% 30.56 in 1.5 mi NNW 17.3 mph - 0.00 in Snow Light Snow
9:37 PM 18.0 °F 4.2 °F 14.0 °F 84% 30.57 in 2.5 mi NNW 13.8 mph - 0.00 in Snow Light Snow
9:44 PM 18.0 °F 3.6 °F 14.0 °F 84% 30.57 in 4.0 mi NNW 15.0 mph - 0.00 in Snow Light Snow
9:53 PM 18.0 °F 4.8 °F 14.0 °F 84% 30.62 in 3.0 mi NNW 12.7 mph - 0.00 in Snow Light Snow
10:07 PM 18.0 °F 3.1 °F 14.0 °F 84% 30.58 in 2.5 mi NNW 16.1 mph - 0.00 in Snow Light Snow
10:28 PM 18.0 °F 3.1 °F 12.9 °F 81% 30.58 in 6.0 mi NNW 16.1 mph - 0.00 in Snow Light Snow
10:45 PM 18.0 °F 3.1 °F 12.9 °F 81% 30.59 in 9.0 mi North 16.1 mph - 0.00 in Snow Light Snow
10:53 PM 18.0 °F 2.6 °F 12.0 °F 78% 30.64 in 10.0 mi NNW 17.3 mph - 0.00 in Snow Light Snow
11:53 PM 17.1 °F 0.6 °F 10.0 °F 74% 30.68 in 10.0 mi North 19.6 mph 26.5 mph 0.00 in   Overcast